{"data":{"norad_id":67814,"intl_designator":"2026-032T","name":"STARLINK-36767","alt_names":[],"object_type":"PAYLOAD","status":"ACTIVE","operator":null,"country":"US","launch_date":"2026-02-15","launch_site_code":"AFWTR","launch_vehicle":null,"mission":null,"orbit_class":"UNKNOWN","rcs_meters":null,"size_class":null,"mass_kg":null,"dimensions":null,"purposes":["comms"],"wikipedia_slug":null,"has_3d_model":false,"image_url":null,"decayed_at":null,"tle_current":{"epoch":"2026-05-25T01:32:20.165856Z","epoch_age_seconds":73531,"freshness":"FRESH","line1":"1 67814U 26032T   26145.06412229  .00013205  00000+0  41054-3 0  9990","line2":"2 67814  97.2856 333.1321 0001394  90.6835 269.4567 15.33452474 16665","mean_motion":15.33452474,"eccentricity":0.0001394,"inclination_deg":97.2856,"raan_deg":333.1321,"arg_perigee_deg":90.6835,"mean_anomaly_deg":269.4567,"bstar":0.00041054,"rev_number":1666,"period_min":93.905746960893,"perigee_km":464.56693128641,"apogee_km":466.4749431193,"semimajor_km":6843.6579372029,"source":"CELESTRAK","updated_at":"2026-05-25T13:38:21.695613Z"}}}